Regional Weather Roundup
Issued by NWS Green Bay, WI

Home | Current Version | Previous Version | Graphics & Text | Print | Product List | Glossary Off
Versions: 1 2 3 4 5 6 7 8 9 10 11 12 13 14 15 16 17 18 19 20 21 22 23 24 25 26 27 28 29 30 31 32 33 34 35 36 37 38 39 40 41 42 43 44 45 46 47 48 49 50

000
ASUS43 KGRB 310311
RWRGRB

NORTH-CENTRAL AND NORTHEAST WISCONSIN REGIONAL WEATHER ROUNDUP
NATIONAL WEATHER SERVICE GREEN BAY WI
1000 PM CDT MON MAY 30 2016

WIZ005-009-010>012-018-019-310400-
NORTH CENTRAL WISCONSIN

CITY           SKY/WX    TMP DP  RH WIND       PRES   REMARKS
IRONWOOD       PTCLDY    61  52  72 E5        29.97R
MANITOWISH WTR NOT AVBL
ARBOR VITAE    CLEAR     60  53  78 CALM      30.02R
EAGLE RIVER      N/A     57  53  86 CALM      30.02R
LAND O LAKES   PTCLDY    57  50  78 CALM      30.03R
RHINELANDER    CLOUDY    57  53  86 CALM      30.02R
PHILLIPS       MOCLDY    64  57  79 CALM      29.99R
ANTIGO         CLOUDY    62  57  84 CALM      30.02R
TOMAHAWK       CLOUDY    63  56  79 CALM      30.01R
MERRILL        PTCLDY    62  58  87 CALM      30.01R
$$

WIZ013-073-310400-
NORTHEAST WISCONSIN

CITY           SKY/WX    TMP DP  RH WIND       PRES   REMARKS
IRON MOUNTAIN  CLEAR     58  47  66 CALM      29.99R
MARINETTE      CLEAR     63  55  77 CALM      29.98R
OCONTO         CLEAR     59  59 100 CALM      29.98R
$$

WIZ017-030-035>037-045-310400-
CENTRAL WISCONSIN

CITY           SKY/WX    TMP DP  RH WIND       PRES   REMARKS
MEDFORD        PTCLDY    63  56  77 SE3       30.00R
WAUSAU         PTCLDY    67  56  67 CALM      29.99R
MOSINEE        CLEAR     63  54  72 SE3       30.01R
MARSHFIELD     CLOUDY    69  53  56 CALM      29.98R
WISC RAPIDS    CLOUDY    63  52  67 CALM      30.00R
STEVENS POINT  CLEAR     61  54  78 CALM      30.00S
WAUPACA        CLOUDY    65  58  77 CALM      30.00R
SHAWANO        CLEAR     63  56  76 CALM      29.99R
CLINTONVILLE   CLEAR     61  54  77 CALM      30.00R
WAUTOMA        CLOUDY   N/A N/A N/A CALM      29.99R
$$

WIZ038-039-048-051-310400-
FOX VALLEY

CITY           SKY/WX    TMP DP  RH WIND       PRES   REMARKS
NWS GREEN BAY  CLEAR     66  59  78 SW3       29.99R
APPLETON       PTCLDY   N/A N/A N/A VRB3      29.99R
OSHKOSH        CLEAR     66  53  63 CALM      29.99R
FOND DU LAC    CLEAR     66  59  78 SE6       30.00R
$$

WIZ022-050-052-310400-
EAST CENTRAL WISCONSIN

CITY           SKY/WX    TMP DP  RH WIND       PRES   REMARKS
EPHRAIM        FAIR      61  56  84 SW3       29.97R
STURGEON BAY   NOT AVBL
MANITOWOC      CLEAR     62  54  74 SW5       30.01R
SHEBOYGAN      CLEAR     61  55  81 CALM      30.00S
$$

LMZ563-521-522-541>543-310400-
LAKESHORE

STATION/POSITION TIME  TEMP    WIND        PRES    VSBY  WAVE
                       AIR SEA DIR/SP/G                  HT/PER
                 (UTC) (F)     (DEG/KT/KT) (MB)    (MI)  (FT/S)
SHEBOYGAN LKSHOR 0300   61     180/  4/  4 1016.3R
KEWAUNEE LKSHORE 0200                      1014.6R
NORTHPORT PIER   0300   59      10/  8/ 13 1015.6R
N MID LAKE BUOY  0250   55 50  320/  4/  8 1015.6R         1/ 3
CHAMBERS ISLAND  0200   66     180/  3/  5 1014.6
MENOMINEE LKSHOR 0200                      1013.4R
$$




USA.gov is the U.S. government's official web portal to all federal, state and local government web resources and services.